St. Charles, IL

1:59 PM CDT on April 29, 2017 (GMT -0500)
Saint Charles County Smartt

Weather History for KSET - March, 2012

Change the Weather History Date:

Friday, March 2, 2012

  Actual Average (KSTL) Record (KSTL)
Temperature  
Mean Temperature 44 °F -  
Max Temperature 52 °F 52 °F 79 °F (1976)
Min Temperature 35 °F 33 °F 2 °F (1980)
Degree Days  
Heating Degree Days 21    
Moisture  
Dew Point 38 °F    
Average Humidity 75    
Maximum Humidity 93    
Minimum Humidity 58    
Precipitation  
Precipitation 0.51 in - - ()
Sea Level Pressure  
Sea Level Pressure 29.53 in    
Wind  
Wind Speed 11 mph (WNW)    
Max Wind Speed 34 mph    
Max Gust Speed 44 mph    
Visibility 8 miles    
Events Rain , Thunderstorm    
Averages and records for this station are not official NWS values.
T = Trace of Precipitation, MM = Missing Value Source: NWS Daily Summary

Daily Weather History Graph

Daily Weather History Graph

Search for Another Location

Airport or City:

Trip Planner

Search our weather history database for the weather conditions in past years. The results will help you decide how hot, cold, wet, or windy it might be!

Date:

Astronomy

Mar. 02, 2012 Rise Set
Actual Time 6:31 AM CST 5:56 PM CST
Civil Twilight 6:05 AM CST 6:22 PM CST
Nautical Twilight 5:34 AM CST 6:53 PM CST
Astronomical Twilight 5:03 AM CST 7:24 PM CST
Moon 12:10 PM CST (3/2) 2:19 AM CST (3/2)
Length of Visible Light 12h 17m
Length of Day
11h 24m
Waxing Gibbous, 66% of the Moon is Illuminated
Mar 2
Waxing Gibbous
Mar 8
Full
Mar 14
Last Quarter
Mar 22
New
Mar 30
First Quarter

Hourly Weather History & Observations

Time (CST) Temp. Windchill Dew Point Humidity Pressure Visibility Wind Dir Wind Speed Gust Speed Precip Events Conditions
12:54 AM 46.0 °F 43.1 °F 32.0 °F 58% 29.56 in 9.0 mi ENE 5.8 mph - N/A   Clear
1:54 AM 46.9 °F - 33.1 °F 59% 29.54 in 10.0 mi East 9.2 mph - N/A   Clear
2:54 AM 46.9 °F - 33.1 °F 59% 29.50 in 10.0 mi East 6.9 mph - N/A   Clear
3:54 AM 45.0 °F 40.1 °F 34.0 °F 65% 29.46 in 10.0 mi East 9.2 mph - N/A   Clear
4:54 AM 46.9 °F - 36.0 °F 66% 29.43 in 10.0 mi East 10.4 mph - N/A   Clear
5:29 AM 48.2 °F - 37.4 °F 66% 29.40 in 10.0 mi ENE 11.5 mph - N/A Thunderstorm Partly Cloudy
5:54 AM 52.0 °F - 39.9 °F 63% 29.49 in 10.0 mi WNW 15.0 mph 19.6 mph 0.00 in Rain , Thunderstorm Light Rain
6:04 AM 48.2 °F - 41.0 °F 76% 29.47 in 2.0 mi NW 17.3 mph 26.5 mph 0.21 in Rain , Thunderstorm Heavy Thunderstorms and Rain
6:11 AM 46.4 °F 41.9 °F 39.2 °F 76% 29.46 in 1.2 mi WNW 9.2 mph - 0.30 in Rain , Thunderstorm Heavy Thunderstorms and Rain
6:15 AM 46.4 °F 40.4 °F 41.0 °F 81% 29.42 in 3.0 mi NNE 13.8 mph - 0.31 in Rain , Thunderstorm Light Thunderstorms and Rain
6:51 AM 51.8 °F - 44.6 °F 76% 29.41 in 10.0 mi South 6.9 mph - 0.31 in Rain Light Rain
6:54 AM 51.1 °F - 44.1 °F 77% 29.40 in 10.0 mi SSE 9.2 mph - 0.31 in Rain Light Rain
7:54 AM 50.0 °F - 45.0 °F 83% 29.38 in 10.0 mi ESE 6.9 mph - 0.00 in   Overcast
8:54 AM 48.9 °F - 46.0 °F 90% 29.39 in 4.0 mi Calm Calm - 0.07 in Rain , Thunderstorm Light Rain
9:00 AM 48.2 °F - 46.4 °F 93% 29.40 in 1.8 mi West 3.5 mph - 0.07 in Rain , Thunderstorm Heavy Thunderstorms and Rain
9:14 AM 50.0 °F - 46.4 °F 87% 29.37 in 3.0 mi Calm Calm - 0.12 in Rain , Thunderstorm Light Thunderstorms and Rain
9:35 AM 51.8 °F - 46.4 °F 82% 29.36 in 10.0 mi Calm Calm - 0.12 in   Mostly Cloudy
9:43 AM 51.8 °F - 46.4 °F 82% 29.38 in 10.0 mi WSW 5.8 mph - 0.12 in Thunderstorm Overcast
9:54 AM 52.0 °F - 48.0 °F 86% 29.36 in 10.0 mi SSE 5.8 mph - 0.12 in Rain Light Rain
10:54 AM 52.0 °F - 48.0 °F 86% 29.36 in 10.0 mi West 12.7 mph - 0.01 in   Partly Cloudy
11:09 AM 51.8 °F - 46.4 °F 82% 29.36 in 8.0 mi WNW 15.0 mph - N/A   Mostly Cloudy
11:51 AM 50.0 °F - 44.6 °F 82% 29.38 in 8.0 mi WNW 20.7 mph - N/A   Mostly Cloudy
11:54 AM 50.0 °F - 44.1 °F 80% 29.38 in 8.0 mi WNW 19.6 mph - N/A   Mostly Cloudy
12:03 PM 50.0 °F - 42.8 °F 76% 29.40 in 8.0 mi WNW 21.9 mph 25.3 mph N/A   Mostly Cloudy
12:39 PM 46.4 °F 38.1 °F 39.2 °F 76% 29.43 in 5.0 mi WNW 24.2 mph 35.7 mph N/A   Haze
12:54 PM 46.0 °F 37.0 °F 37.9 °F 73% 29.45 in 5.0 mi West 27.6 mph 34.5 mph N/A   Haze
1:54 PM 46.0 °F 38.5 °F 37.0 °F 71% 29.54 in 6.0 mi WNW 19.6 mph 33.4 mph N/A   Haze
2:54 PM 42.1 °F 30.6 °F 34.0 °F 73% 29.61 in 10.0 mi WNW 34.5 mph 43.7 mph N/A   Overcast
3:54 PM 39.9 °F 28.6 °F 32.0 °F 73% 29.70 in 10.0 mi WNW 28.8 mph 35.7 mph N/A   Overcast
4:54 PM 39.9 °F 30.5 °F 30.9 °F 70% 29.75 in 10.0 mi NW 19.6 mph 29.9 mph N/A   Mostly Cloudy
5:02 PM 39.2 °F 28.3 °F 30.2 °F 70% 29.76 in 10.0 mi NW 25.3 mph 34.5 mph N/A   Scattered Clouds
5:54 PM 39.0 °F 31.4 °F 30.0 °F 70% 29.78 in 10.0 mi NW 12.7 mph 23.0 mph N/A   Clear
6:54 PM 39.0 °F 31.8 °F 30.0 °F 70% 29.83 in 10.0 mi WNW 11.5 mph - N/A   Clear
7:54 PM 37.9 °F 30.0 °F 30.9 °F 76% 29.83 in 10.0 mi WNW 12.7 mph - N/A   Clear
8:54 PM 37.9 °F 29.6 °F 30.9 °F 76% 29.82 in 10.0 mi West 13.8 mph - N/A   Clear
9:54 PM 37.9 °F 31.5 °F 30.0 °F 73% 29.83 in 10.0 mi West 9.2 mph - N/A   Clear
10:54 PM 36.0 °F 29.0 °F 28.9 °F 76% 29.82 in 10.0 mi West 9.2 mph - N/A   Clear
11:54 PM 35.1 °F 29.3 °F 28.9 °F 78% 29.83 in 10.0 mi West 6.9 mph - N/A   Clear